RH
44 37 36 46 54 59 60 63 61 57 54 53 49 46 47 46 47 47 45 42 40 39 40 40 40 40 38 36 32 28 22 18 16 16 16 16 16 15 14 14 14 15 17 20 22 23 21 26 28 32 40 52 66 78 85 81 74 64 56 50 38 31 36 39 49 64 78 88 92 94 93 82 72 65 64 54 51 53 55 68 79 88 93 91 90 92 94 96 98 98 98 98 98 97 97 96 94 93 92 91 94 98 98
40 43 58 71 76 77 79 78 71 63 60 60 59 58 55 51 53 56 54 55 57 60 62 58 54 50 44 39 33 27 22 18 15 13 13 12 12 11 10 10 10 12 14 16 17 17 16 20 24 30 40 54 66 75 79 72 62 54 48 43 34 28 34 33 42 56 70 81 86 88 90 78 69 65 65 56 56 60 62 76 88 94 94 92 92 93 95 95 95 95 98 99 99 99 98 98 97 96 96 95 96 98 100
43 57 89 87 85 86 92 90 86 79 71 70 70 68 63 61 63 65 67 68 74 80 80 79 72 61 52 42 33 26 20 16 13 10 10 9 8 8 8 8 8 8 10 11 12 12 12 16 21 29 42 55 66 74 78 71 61 52 47 40 31 27 33 40 44 50 62 71 76 80 82 72 66 65 67 62 64 70 79 86 88 90 94 92 87 85 93 94 94 94 96 97 97 98 99 99 98 98 98 96 97 97 97
50 71 96 90 83 81 94 95 94 92 90 84 76 68 65 62 62 64 67 64 69 78 86 76 74 72 60 56 40 24 17 14 11 8 7 7 6 6 6 6 6 7 8 8 8 8 10 14 19 28 42 54 65 74 79 73 63 53 46 39 32 30 37 56 63 66 74 74 76 77 72 66 67 71 73 75 74 77 92 89 87 88 95 92 87 82 79 86 90 92 96 96 96 96 96 97 98 98 98 96 96 96 92
61 84 98 90 83 82 98 98 98 97 97 85 78 73 67 60 55 54 58 54 60 68 74 64 58 55 55 59 45 26 15 12 10 8 6 6 6 6 6 6 6 6 7 7 7 8 9 13 18 27 42 57 69 76 78 72 61 51 43 38 34 37 52 76 86 88 89 88 84 78 68 70 76 81 84 84 86 88 92 91 90 90 92 93 92 90 88 80 79 82 87 88 92 95 96 96 96 96 96 97 98 97 94
70 86 88 81 82 90 100 96 96 95 88 86 80 74 70 61 55 50 47 48 55 62 67 51 40 34 33 36 40 37 20 16 11 8 6 6 6 6 6 6 6 6 6 7 7 7 8 13 21 34 54 70 78 81 76 66 56 47 38 35 37 50 77 86 88 88 88 92 91 88 81 86 90 93 96 91 90 90 85 88 88 88 93 92 93 94 90 82 78 76 72 72 76 84 92 95 97 97 96 96 98 98 96
70 76 72 76 86 97 100 92 94 98 99 87 80 74 67 60 54 50 49 58 68 71 57 40 31 26 22 22 24 26 21 16 11 8 6 6 6 6 6 6 6 6 6 6 7 7 9 16 29 48 71 80 85 83 74 61 50 42 34 33 45 65 87 85 84 84 84 92 95 95 94 94 92 90 93 92 92 92 90 86 88 92 92 92 93 94 90 86 88 87 72 72 70 70 74 87 93 96 98 98 96 94 90
70 76 74 76 86 97 99 96 96 98 100 92 82 74 65 60 58 58 66 85 83 66 39 31 26 22 18 16 14 14 15 13 10 8 6 6 6 6 6 6 6 6 6 6 6 7 10 21 38 58 78 85 85 79 66 55 47 40 30 40 61 82 92 89 88 88 89 90 91 92 94 96 94 92 93 92 93 92 87 81 84 89 89 93 94 93 88 86 89 90 84 82 79 74 67 73 74 78 92 95 96 96 94
72 81 82 80 82 86 91 92 94 94 89 79 76 74 67 65 66 73 84 93 80 57 34 27 23 19 16 14 12 11 12 11 10 8 6 6 6 6 6 6 5 5 6 6 6 7 10 21 37 56 73 79 75 64 52 46 40 34 30 54 76 92 94 92 89 89 94 94 92 92 96 93 93 94 95 94 92 88 79 69 66 70 79 85 89 88 84 86 89 92 92 90 91 90 83 84 79 76 80 82 87 92 93
67 76 80 87 86 82 77 80 80 77 72 69 68 70 74 77 80 82 86 77 60 43 36 27 21 18 15 12 10 8 8 8 8 8 6 6 6 6 6 5 5 5 5 5 6 7 9 16 29 43 56 58 52 44 37 34 28 27 42 68 86 94 91 86 87 90 93 92 92 93 97 93 92 92 91 92 87 77 66 61 60 63 68 68 68 69 70 80 88 93 94 94 94 95 93 92 90 87 88 86 85 85 84
69 83 94 95 89 79 71 67 67 68 65 67 74 80 88 91 92 88 82 71 57 46 43 28 20 14 12 10 8 8 7 7 7 7 6 6 6 6 6 6 5 5 5 5 5 6 8 12 19 26 32 31 28 26 27 21 22 33 57 77 89 91 82 78 76 74 72 81 82 80 82 86 89 89 85 86 80 72 66 58 54 51 50 50 53 57 63 70 77 84 88 92 94 96 96 94 94 95 95 93 94 94 90
79 96 98 86 77 70 64 65 64 62 63 73 84 92 97 98 99 93 76 67 56 45 40 27 17 12 10 8 8 7 7 6 6 6 6 6 6 6 6 6 6 6 5 5 5 6 7 10 15 19 22 22 22 21 18 16 27 45 65 84 88 84 76 67 58 51 51 54 58 61 65 73 78 78 72 76 76 72 61 52 48 47 44 40 40 42 49 56 66 76 80 87 92 94 96 95 95 96 95 95 95 96 97
78 92 90 74 66 64 62 63 62 61 64 81 92 99 100 100 100 97 90 82 63 43 34 22 14 10 8 8 7 7 7 7 7 7 7 7 7 7 6 6 6 6 6 6 6 6 6 10 13 16 17 18 18 16 12 22 36 54 74 90 89 80 72 54 43 38 36 37 38 42 46 56 62 64 60 66 69 66 58 45 40 38 30 31 29 29 33 40 54 66 73 79 83 87 94 95 94 94 94 96 96 96 97
63 72 77 67 62 61 64 63 60 59 68 92 99 100 100 100 99 99 97 72 56 44 30 18 11 8 8 7 7 7 7 8 8 8 8 8 8 8 8 7 6 6 6 6 6 6 6 8 11 13 14 14 12 11 14 30 44 60 85 89 83 70 56 46 40 40 46 44 42 39 35 42 47 51 54 64 67 64 57 43 36 31 26 32 27 22 22 26 37 50 64 67 70 76 84 90 93 93 93 94 94 95 96
56 60 63 58 56 56 58 57 53 54 69 92 100 100 99 97 96 93 86 70 55 40 26 14 9 8 8 8 8 8 8 8 8 8 8 8 8 8 8 8 7 6 6 6 6 6 7 10 14 16 16 12 10 12 21 37 51 68 92 88 76 61 51 48 52 60 73 70 66 60 49 51 54 58 64 72 72 67 60 45 36 32 29 29 26 22 17 18 24 34 48 55 62 68 74 82 88 90 90 90 89 90 92
51 52 49 47 46 46 48 46 44 48 63 88 98 98 95 90 90 87 77 71 52 30 17 10 8 8 8 8 9 10 10 10 10 10 10 10 10 9 8 8 8 7 7 6 6 8 10 16 20 21 16 10 10 15 27 40 56 74 93 82 68 56 52 63 70 74 74 67 68 69 62 63 68 74 80 81 78 72 65 50 43 40 39 36 33 28 24 20 20 24 34 46 56 63 68 72 77 82 83 80 80 80 80
46 46 46 45 44 42 40 38 38 44 59 82 94 96 88 83 83 82 74 58 38 20 10 8 8 9 10 10 10 10 11 11 11 11 10 10 10 10 8 8 8 7 7 6 7 10 14 21 24 22 15 10 11 18 30 41 56 71 81 71 62 58 62 74 74 66 54 46 46 49 50 51 57 66 76 76 71 65 64 57 57 58 55 52 46 38 31 26 22 21 24 37 47 54 58 62 65 68 74 69 66 66 67
47 48 50 49 47 43 37 34 36 42 55 73 87 92 86 79 76 71 60 40 24 12 8 9 10 10 10 11 11 12 12 12 11 11 11 11 10 10 8 8 8 7 6 6 8 12 17 24 24 20 12 10 13 21 31 40 51 61 64 62 64 69 73 70 62 49 34 25 22 22 24 26 32 40 47 48 48 47 46 56 67 75 76 73 63 50 38 33 28 24 24 29 38 46 49 53 56 58 63 61 58 58 58
52 53 54 52 50 45 38 35 34 38 45 58 72 79 76 68 60 50 38 24 15 10 9 10 11 12 12 13 13 14 14 13 12 12 11 11 10 9 8 8 8 7 6 7 10 14 21 26 24 18 10 8 13 20 28 35 44 50 52 58 70 78 80 67 56 43 27 17 11 8 9 11 13 15 20 26 29 30 31 46 63 80 90 88 77 62 45 38 34 32 30 30 33 38 45 50 52 54 56 57 56 54 54
55 55 55 55 53 48 41 38 36 36 36 42 50 55 54 47 40 31 22 15 10 9 10 12 12 13 14 14 15 15 15 14 13 12 12 11 10 9 8 8 7 6 6 7 10 17 24 29 26 19 10 8 10 15 20 28 36 43 49 63 74 78 75 62 52 40 26 19 12 8 6 7 10 16 24 31 34 35 34 42 58 76 87 88 82 70 54 47 42 40 41 41 40 42 48 54 56 55 55 55 54 53 52
59 58 56 56 54 50 44 42 39 36 33 34 36 37 34 30 25 20 14 11 10 10 12 13 14 15 16 16 16 16 16 15 15 14 13 12 10 9 8 7 6 6 5 7 11 17 25 28 26 18 10 8 8 10 12 18 25 34 46 62 70 72 67 56 46 36 24 19 14 10 8 10 18 31 46 51 52 50 45 45 52 63 75 78 80 76 64 56 52 52 56 55 54 56 60 60 58 56 55 52 52 52 54
64 61 58 58 57 52 46 44 41 38 36 38 38 35 30 26 20 14 12 10 11 12 14 14 16 16 16 16 16 16 16 16 15 14 14 12 10 8 7 6 6 5 5 7 10 15 21 24 20 14 8 7 6 7 8 10 13 20 32 47 57 60 58 49 42 33 22 15 11 9 8 12 24 38 52 63 64 58 50 44 42 45 54 66 72 73 66 61 60 62 70 65 62 65 74 66 60 55 52 48 50 53 56
64 65 63 64 62 57 50 50 48 45 43 48 48 44 37 30 22 14 12 12 13 14 15 16 17 17 18 17 17 16 16 16 16 14 13 11 10 8 6 6 6 5 5 7 10 13 16 16 13 10 7 6 5 6 6 7 7 9 13 26 37 46 48 43 36 27 18 12 8 7 7 10 19 33 45 58 61 58 49 40 31 26 30 44 54 58 56 56 60 65 70 68 68 70 70 65 59 52 48 47 52 60 66
67 70 68 68 67 63 58 58 58 58 56 56 59 62 60 44 29 18 14 16 18 19 18 17 18 18 18 18 18 17 17 17 16 15 13 10 8 7 6 6 6 6 6 7 8 11 12 11 10 7 6 5 5 5 6 6 6 6 6 10 17 25 33 33 28 21 12 8 7 6 6 7 12 21 34 46 52 52 45 34 24 18 19 24 33 42 46 44 51 60 66 66 69 71 68 64 58 53 46 46 57 68 75
77 79 76 74 73 71 69 71 74 74 72 60 66 76 78 64 46 29 20 20 22 22 21 19 18 19 20 19 19 18 18 18 16 14 12 10 8 6 6 6 6 6 6 7 8 10 11 10 8 8 7 6 6 6 6 6 6 6 6 6 8 10 13 16 16 13 8 7 6 6 5 6 8 13 21 35 44 48 44 32 25 23 26 25 26 29 32 34 48 62 62 64 68 69 67 62 58 53 48 49 57 67 74
90 90 88 85 83 82 81 88 90 90 84 67 67 74 78 70 56 39 24 22 22 23 22 20 20 20 20 20 20 20 20 18 16 13 10 8 7 6 6 7 7 7 7 7 8 10 11 10 10 8 8 7 7 6 6 7 7 7 7 7 7 7 7 8 8 8 7 6 6 5 5 6 7 9 12 22 32 40 45 38 34 35 42 40 37 34 32 31 37 46 57 58 61 64 62 62 60 56 52 55 58 64 76
96 96 94 93 93 92 89 94 96 93 85 72 66 65 65 63 54 40 24 22 21 22 21 21 21 22 22 22 21 21 20 18 16 12 10 8 7 7 7 7 8 8 8 8 9 10 11 11 10 10 8 8 8 7 8 8 8 8 8 8 7 7 7 7 7 8 8 7 6 6 5 5 6 7 8 12 19 28 40 45 45 48 60 56 50 44 39 36 34 38 48 51 52 54 57 57 55 53 53 54 56 63 78
96 96 95 95 95 93 90 90 88 85 79 72 67 61 52 50 45 36 24 21 20 21 21 22 22 23 23 22 22 22 21 18 15 11 8 8 8 8 8 8 8 8 8 9 10 11 13 13 12 11 10 10 9 9 9 10 10 10 10 10 9 8 8 8 9 9 10 8 8 7 6 6 6 6 7 8 11 17 28 34 44 58 76 73 65 55 44 40 36 36 42 47 48 49 54 52 51 50 50 54 58 66 80
93 94 94 93 90 88 85 81 77 74 72 68 64 58 46 40 35 29 23 21 20 21 22 23 23 24 23 23 23 22 21 18 14 11 8 8 8 8 10 10 10 10 10 10 12 14 16 16 14 13 12 11 11 11 12 12 13 13 13 13 12 12 11 11 12 12 12 11 10 9 8 7 6 6 6 7 8 10 14 20 36 56 73 74 71 64 51 44 38 36 42 46 46 45 46 47 48 48 50 56 62 69 79
86 88 90 88 85 81 78 74 70 66 64 60 57 52 43 34 28 24 20 20 20 21 23 24 24 24 24 24 24 23 21 18 14 10 8 8 9 10 11 11 11 11 12 13 15 17 18 17 16 14 14 13 14 14 14 16 16 17 17 17 16 16 15 15 15 14 14 13 12 11 10 9 8 8 7 6 7 8 9 11 22 40 66 76 73 65 57 50 42 39 44 50 49 46 47 47 47 48 51 58 61 65 71
76 78 85 84 81 77 74 70 67 64 60 55 50 44 38 30 26 23 20 20 21 22 24 24 24 25 25 25 24 23 21 18 14 10 9 9 10 11 12 13 13 13 14 15 17 18 18 17 17 16 16 16 16 17 18 19 20 21 21 21 20 20 19 19 18 18 17 16 14 13 12 11 10 9 8 8 7 7 8 9 13 23 42 53 58 60 64 55 47 45 55 58 56 52 51 50 49 49 50 57 61 62 60
70 71 80 82 80 76 72 70 68 66 62 55 46 40 38 30 26 22 21 20 21 22 24 26 26 26 26 26 24 23 22 18 14 11 10 10 11 12 14 15 15 15 16 17 17 18 18 18 19 20 21 20 20 20 22 22 24 24 24 24 24 24 23 22 21 20 20 19 18 16 15 14 13 12 10 10 8 8 8 8 10 12 18 37 50 58 62 50 46 48 58 67 67 63 58 54 51 49 47 55 58 58 54
73 72 76 80 78 74 70 71 71 70 66 56 48 44 46 36 28 23 21 21 22 24 26 27 27 27 27 26 25 24 22 18 14 12 10 11 12 14 16 16 17 17 18 18 18 18 19 20 21 22 24 23 23 23 24 25 26 26 27 27 26 26 26 24 24 23 22 22 20 20 19 18 17 16 14 13 11 10 10 9 10 10 11 22 39 51 52 46 42 42 48 64 72 72 64 59 54 50 46 51 55 54 47
75 76 73 76 75 73 70 73 75 74 70 57 52 52 51 42 32 25 21 21 23 24 26 28 28 28 27 27 26 24 22 18 15 12 12 12 14 16 17 18 18 18 19 19 19 20 20 21 22 22 24 24 25 26 26 26 27 28 28 28 28 28 27 26 26 25 24 24 23 22 22 21 20 20 18 17 15 14 12 11 10 10 10 14 30 46 55 47 38 33 39 56 67 72 66 61 56 51 46 44 42 41 43
71 75 71 71 72 72 73 76 78 76 72 58 54 54 51 44 36 27 21 22 23 26 27 28 28 28 28 27 26 24 23 20 16 14 13 14 15 17 19 19 19 19 20 20 21 21 22 22 22 22 23 24 26 27 28 28 28 28 29 29 29 29 28 28 28 27 26 26 26 26 25 24 24 23 22 21 20 18 17 15 13 12 11 12 24 42 58 52 42 32 30 42 53 61 64 60 57 52 47 44 43 43 44
62 69 69 68 69 72 74 77 78 77 71 62 57 52 47 42 36 28 22 22 24 26 28 28 29 29 28 28 26 26 24 21 17 15 14 15 16 18 20 20 20 21 21 22 22 22 22 22 22 23 24 24 26 28 28 29 29 29 29 30 30 30 30 29 29 29 29 28 28 28 28 28 27 26 26 25 24 23 22 20 18 16 14 12 19 32 54 54 46 34 24 26 34 44 56 57 56 53 50 48 47 48 48
56 63 68 68 69 71 74 76 78 76 70 67 61 54 45 39 34 28 22 22 24 26 28 29 30 29 29 28 27 26 26 23 19 16 16 17 18 19 21 22 22 22 23 23 24 24 24 23 24 24 25 26 27 28 29 30 30 30 30 30 30 30 30 30 30 31 31 31 31 31 31 31 31 30 30 30 29 28 27 26 24 22 19 18 15 18 32 43 42 34 21 22 24 30 44 56 58 58 57 56 55 54 52
54 60 68 70 71 72 73 74 76 75 72 70 66 60 47 36 30 27 23 22 24 26 29 30 30 30 30 29 28 27 27 24 21 18 17 18 20 20 22 23 24 24 24 24 25 25 24 24 25 26 26 28 28 29 30 31 31 32 32 32 32 32 32 32 32 32 33 33 34 34 35 35 35 35 34 34 34 33 32 31 30 28 26 23 21 19 18 27 29 26 19 20 21 24 32 48 58 64 66 66 62 59 56
54 58 67 72 74 74 72 72 74 75 73 71 69 64 53 38 30 26 24 22 24 26 29 30 30 30 30 30 28 28 28 26 23 20 18 20 21 22 23 24 24 26 26 26 26 26 26 26 26 27 28 28 29 30 31 32 32 33 33 33 34 34 34 34 34 34 35 36 37 38 38 39 39 39 39 39 38 37 36 35 34 33 31 28 26 24 21 21 20 19 18 18 19 21 26 38 52 65 72 70 65 59 55
57 58 64 71 74 74 72 74 76 77 74 71 69 66 58 43 32 24 22 22 24 26 29 30 31 31 30 30 29 28 28 27 24 21 18 20 22 24 25 26 26 26 27 27 27 27 28 28 28 28 29 30 30 31 32 33 34 34 34 34 35 35 35 36 36 37 37 38 40 41 42 42 42 42 42 42 42 40 40 39 38 36 34 32 30 27 25 23 21 20 20 22 22 23 28 40 52 61 70 68 62 56 49
60 58 60 66 70 72 74 76 79 79 76 71 68 67 62 49 36 26 21 22 23 26 28 30 31 31 31 30 30 29 29 28 26 23 20 21 23 25 27 27 27 28 28 28 28 29 29 30 30 30 30 31 32 32 33 34 34 34 35 35 36 36 36 37 38 39 40 41 42 44 44 44 44 44 44 43 43 42 42 40 40 38 37 35 33 30 28 26 26 24 23 28 28 29 34 43 48 53 61 60 56 49 42
64 60 60 63 66 70 76 79 81 81 78 72 69 67 65 54 40 28 22 21 23 25 28 30 31 32 31 31 30 30 29 30 28 26 21 21 23 26 28 29 29 29 30 30 30 30 30 31 31 32 32 32 32 33 34 34 35 35 35 36 36 37 38 38 40 40 42 43 44 45 45 45 45 45 44 44 44 43 42 42 40 40 39 38 36 34 31 30 29 28 26 27 28 30 33 35 38 42 47 46 44 40 37
66 63 60 62 64 68 74 79 83 83 80 74 70 68 68 60 46 33 24 22 22 24 27 30 31 32 32 32 31 30 30 30 30 28 24 22 23 26 28 30 30 31 31 31 31 31 31 32 32 32 33 33 34 34 34 35 36 36 36 36 37 38 38 40 40 42 43 44 45 45 45 45 45 45 44 44 44 43 42 42 42 40 40 39 38 36 34 32 30 28 27 26 25 24 26 28 30 32 34 35 35 34 30
69 65 62 62 63 66 72 78 84 85 82 76 72 70 70 64 53 40 29 24 22 23 26 30 32 32 32 32 32 31 30 30 31 30 26 24 24 25 28 30 31 32 32 32 32 32 32 32 33 33 34 34 34 35 36 36 36 37 37 38 38 39 40 40 42 43 44 45 45 45 45 45 44 44 44 44 43 43 42 42 42 42 40 40 39 38 36 34 32 29 27 26 24 23 22 22 24 26 27 28 28 27 26
72 68 65 64 64 66 69 77 83 86 84 78 74 72 71 68 60 48 35 26 22 22 24 28 31 32 33 32 32 32 31 31 31 31 28 25 24 25 28 30 31 32 33 33 33 32 32 32 33 34 34 35 35 36 36 37 37 38 38 38 39 40 40 42 43 44 45 45 45 45 45 44 44 44 43 43 43 42 42 42 42 42 42 40 40 39 38 36 34 32 29 26 24 21 19 18 18 20 21 22 23 24 22
74 72 69 68 67 67 67 74 81 85 85 80 75 72 72 70 64 55 42 30 23 21 24 27 30 32 33 33 33 32 32 31 32 32 31 27 24 24 27 30 31 32 33 33 33 33 33 33 33 34 35 36 36 36 37 38 38 38 39 40 40 40 42 42 44 45 46 46 46 45 45 44 44 43 43 43 42 42 42 42 42 42 42 41 40 40 39 38 36 34 32 29 26 23 20 18 16 15 16 17 18 19 18
77 74 72 71 70 70 68 74 80 84 83 78 74 72 72 71 67 60 48 35 26 21 22 26 29 31 33 33 33 33 32 32 32 32 32 29 26 24 26 29 31 32 33 34 34 34 33 33 34 34 35 36 36 37 37 38 38 39 40 40 41 42 42 43 44 45 46 46 46 45 45 44 44 43 43 43 43 43 43 43 42 42 42 42 42 40 40 39 38 36 34 31 28 26 23 20 18 16 14 14 15 16 15
81 78 76 74 73 73 72 75 79 81 79 74 71 70 71 71 68 62 53 41 30 23 21 24 28 30 32 33 33 33 33 32 32 32 34 31 28 25 25 28 30 32 33 34 34 34 34 34 34 34 35 36 36 37 38 38 39 40 40 42 42 42 43 44 45 46 46 46 46 46 45 44 44 44 43 43 44 44 44 44 44 43 43 42 42 42 41 40 39 38 36 34 31 29 26 23 21 18 16 15 15 15 15
84 82 79 77 76 76 76 78 79 78 76 71 68 67 69 71 68 64 58 48 36 26 22 24 26 30 32 33 34 33 33 33 32 32 34 33 30 27 25 27 29 31 33 33 34 34 34 34 34 34 35 36 36 37 38 38 39 40 40 42 42 44 44 45 46 46 47 47 46 46 45 45 44 44 44 44 44 44 45 45 44 44 44 44 43 42 42 40 40 39 38 36 34 31 29 26 24 21 18 17 16 16 15
88 86 83 81 80 79 78 80 80 78 74 70 68 67 70 73 71 68 63 55 44 33 24 24 26 29 32 33 34 34 34 34 33 33 33 34 32 30 26 26 27 30 32 33 33 34 34 34 34 35 35 36 36 37 38 38 39 40 40 42 43 44 45 46 46 47 47 47 47 46 46 45 45 45 45 45 45 45 46 46 46 45 45 45 44 43 42 42 41 40 40 38 36 34 31 28 26 23 20 19 17 16 16
90 88 86 84 82 81 79 82 81 78 74 71 70 70 73 76 74 72 67 60 51 40 28 24 24 27 30 32 34 34 34 34 34 33 32 34 34 33 29 26 26 26 30 32 33 34 34 34 34 35 35 36 36 37 38 38 39 40 40 42 43 44 46 46 46 47 47 48 47 47 46 46 46 46 46 46 46 46 46 46 46 46 46 46 45 45 44 43 42 42 41 40 37 35 32 30 27 24 22 20 18 18 17
92 90 87 86 84 82 80 82 81 77 73 72 72 72 75 78 78 75 70 65 57 45 33 26 24 26 28 32 33 34 34 35 35 34 33 34 34 34 33 30 28 26 26 28 30 32 33 34 35 36 36 36 37 37 38 38 39 40 40 42 43 44 46 46 47 47 48 48 48 48 47 47 47 46 46 46 47 47 47 47 47 46 46 46 46 46 46 45 44 43 42 40 38 36 33 31 28 26 23 21 20 19 20
93 92 89 87 85 84 82 84 82 77 72 71 71 72 74 78 79 77 73 69 62 53 40 30 26 24 26 30 32 34 34 35 36 36 35 34 34 34 35 35 33 31 29 27 27 29 31 32 33 34 35 36 36 37 38 38 38 39 40 40 42 43 45 46 47 48 48 48 48 48 48 48 48 48 48 48 48 48 48 47 47 46 46 46 46 46 46 45 44 44 43 42 39 36 34 32 30 28 26 24 22 22 22
94 93 90 88 86 84 84 86 84 78 72 69 69 70 71 76 78 79 76 73 67 59 48 36 28 25 26 27 30 32 34 35 36 36 36 35 34 34 36 36 36 36 35 35 35 34 33 33 33 34 34 34 35 35 36 37 38 38 39 40 41 42 44 45 47 48 49 49 49 49 48 48 48 48 48 48 48 48 48 48 47 47 46 46 45 45 45 45 45 44 44 43 40 38 36 35 32 30 27 26 26 25 26
95 94 92 89 87 86 86 87 85 80 72 69 68 69 70 73 76 78 77 74 70 63 55 43 33 27 26 26 28 30 32 34 35 36 37 36 35 35 36 37 37 38 39 40 40 39 37 36 36 36 36 35 35 35 35 36 36 37 38 39 40 41 42 44 46 48 49 49 49 49 49 48 48 48 48 48 48 48 48 48 48 47 46 46 45 45 44 44 44 45 45 45 44 42 39 37 34 32 29 28 28 28 29
95 94 92 90 88 86 86 87 85 80 73 70 69 69 68 70 72 75 77 76 72 67 61 52 40 31 25 26 26 28 30 32 34 36 37 37 37 36 36 37 38 39 39 40 40 39 37 37 37 37 38 38 38 38 37 36 36 36 37 38 38 40 41 43 44 46 48 48 48 48 49 48 48 48 48 47 47 47 47 47 47 46 46 46 45 45 44 44 44 45 46 46 44 42 40 37 35 32 30 29 29 30 31
94 94 92 90 88 87 86 87 85 80 73 69 67 67 67 68 71 74 78 79 77 73 66 60 50 40 29 26 26 26 28 31 33 35 36 37 37 37 37 36 36 37 37 38 38 39 40 40 40 40 40 40 40 40 39 38 38 37 37 38 38 39 40 41 42 44 46 47 48 48 48 48 48 48 48 47 47 47 46 46 46 45 45 45 45 45 44 44 44 44 46 46 44 40 37 36 34 33 32 31 31 31 32
93 94 92 90 88 87 87 86 84 79 72 68 66 66 66 68 71 75 80 82 80 76 71 67 60 52 40 31 26 26 26 28 31 33 35 36 37 38 38 38 37 37 38 38 39 40 42 44 44 43 40 42 42 42 41 40 40 40 40 40 40 40 40 40 40 42 43 45 46 47 48 48 48 48 48 48 48 47 47 46 45 44 44 44 44 43 43 43 43 44 46 45 42 38 35 34 34 34 34 34 33 33 33
92 93 93 91 90 89 88 87 83 78 72 68 66 66 66 68 70 74 78 81 81 79 76 72 68 62 52 40 32 27 26 26 28 30 33 35 36 37 38 38 38 38 38 38 39 40 41 43 44 45 44 44 44 44 43 42 42 42 42 42 42 42 42 41 40 40 41 42 44 45 46 47 48 48 48 48 48 48 47 46 45 44 43 42 42 41 41 42 42 43 45 45 42 38 36 36 38 38 39 38 38 36 35
94 94 94 93 92 92 90 89 85 80 74 70 67 66 66 67 68 72 76 80 82 82 80 76 74 70 64 53 42 32 27 26 26 27 30 32 34 35 36 37 38 38 39 39 39 39 40 40 42 42 43 43 43 43 44 43 42 42 43 43 44 44 44 43 42 42 42 42 42 43 44 45 46 46 48 48 48 48 48 47 46 44 42 40 39 38 38 39 40 42 45 45 43 40 40 42 45 47 48 47 44 40 36
96 96 96 96 94 94 93 92 88 82 76 72 68 66 65 66 67 70 75 79 82 84 83 81 78 76 73 64 54 42 34 29 27 26 27 29 30 32 34 35 36 37 38 38 39 39 39 40 39 40 40 40 41 42 42 42 42 42 42 42 43 43 44 44 44 44 44 43 42 42 42 43 44 45 46 47 48 49 49 48 47 45 42 38 36 35 35 36 38 40 43 44 44 45 48 55 60 64 64 58 49 40 36
Wind_Speed
4 4 4 4 5 5 6 6 5 4 4 3 2 2 2 2 3 4 4 5 5 6 6 6 6 6 6 7 7 8 9 10 10 10 9 9 8 8 7 7 7 7 7 7 7 7 9 10 10 10 12 13 12 10 7 4 2 3 4 5 6 7 8 7 6 5 6 8 9 9 10 9 9 9 9 8 8 7 8 9 9 8 8 7 8 9 9 9 9 10 10 11 11 11 12 11 11 10 10 10 10 10 8
4 4 5 5 6 7 7 6 5 4 4 4 4 4 4 5 6 6 6 7 7 7 7 7 6 6 6 7 8 9 10 10 10 10 10 9 9 8 7 7 7 7 8 7 7 8 10 11 12 12 13 13 12 10 7 4 3 4 5 6 7 8 8 8 7 6 6 7 8 9 9 9 10 10 10 10 9 9 9 10 10 9 9 8 8 8 9 8 8 8 8 9 10 10 11 11 11 11 10 10 10 10 7
4 5 7 6 7 9 9 7 6 5 6 6 6 7 7 7 8 8 8 8 8 8 7 7 6 6 6 7 8 10 10 11 11 10 10 9 9 8 8 7 7 7 7 7 8 9 11 12 12 13 14 13 12 10 7 5 4 5 6 7 8 8 9 9 9 7 7 8 8 8 9 10 10 11 11 11 10 11 11 11 11 10 10 9 8 7 8 8 8 8 8 8 8 8 9 9 10 10 10 9 9 9 7
5 6 7 6 7 9 10 8 7 6 6 7 8 8 8 8 8 8 8 8 8 8 7 6 7 7 7 7 8 10 11 11 11 10 10 9 9 8 8 8 7 7 7 7 8 9 12 12 12 13 14 13 12 10 6 4 4 5 6 8 9 9 10 11 11 10 9 9 9 9 9 10 11 11 11 11 12 12 12 11 11 11 11 10 8 7 6 6 7 7 7 8 8 8 8 8 9 10 9 9 9 8 7
6 7 8 7 7 9 10 9 7 7 6 6 7 7 8 8 7 7 7 7 7 7 6 6 7 8 8 8 8 9 11 11 11 10 10 9 9 9 8 8 8 8 7 7 8 10 12 12 13 14 14 14 11 8 5 2 3 4 7 8 9 10 12 12 12 12 11 11 10 10 11 12 12 12 12 13 13 13 12 11 11 11 11 11 10 9 8 6 6 6 6 6 7 8 9 9 9 9 9 9 9 10 10
7 8 8 7 8 9 9 8 7 6 4 5 6 6 7 7 7 7 7 7 6 6 5 6 7 7 8 8 8 9 10 11 11 10 10 9 9 9 9 8 8 8 8 8 8 10 12 13 14 15 15 13 10 7 3 1 2 5 7 9 10 12 13 13 12 12 12 12 12 12 13 13 14 14 13 13 13 12 11 10 10 11 12 11 11 11 9 8 7 7 6 5 6 7 8 8 9 9 9 9 10 10 10
7 7 8 8 9 10 8 7 6 6 5 5 5 6 6 7 7 7 7 7 6 5 5 7 7 7 7 7 8 8 10 10 10 10 10 9 9 9 9 9 9 9 9 9 9 10 12 14 15 16 15 12 9 5 2 1 2 5 7 9 11 13 13 12 12 12 12 12 13 13 13 13 14 13 12 12 11 11 10 9 10 11 11 11 12 11 11 10 10 9 8 8 7 6 6 7 7 7 8 8 9 9 9
8 7 7 8 9 10 9 7 6 6 5 5 5 5 6 7 8 8 8 7 6 5 6 7 7 7 7 7 7 8 9 9 10 10 9 9 9 9 9 9 9 9 9 9 9 10 12 14 16 16 14 10 7 4 2 2 3 5 7 9 13 14 12 11 11 11 12 12 12 12 12 12 12 12 11 10 9 9 9 9 10 11 11 11 11 11 11 11 11 11 11 10 10 8 7 7 6 6 7 7 7 8 8
8 8 7 7 8 9 8 7 7 6 5 4 4 5 6 8 9 9 8 7 6 6 7 7 7 7 7 7 8 8 8 9 9 10 9 9 9 9 9 9 9 9 9 9 9 10 12 14 15 15 12 9 6 4 2 3 5 6 8 11 14 13 10 10 10 11 11 11 11 10 10 11 10 10 9 8 8 8 8 8 9 9 10 10 10 10 10 10 11 11 12 12 12 11 10 9 8 8 8 7 6 6 7
8 8 7 7 7 6 7 7 6 6 4 5 6 7 8 8 9 8 8 6 5 6 7 7 6 7 7 7 8 8 8 8 9 9 9 9 9 9 9 9 9 9 9 9 9 9 10 12 13 13 11 8 5 3 3 5 6 7 10 13 13 11 8 8 9 10 10 9 9 9 9 9 9 8 8 8 8 8 8 8 8 8 9 9 9 9 9 9 10 11 11 12 11 11 10 10 9 9 9 9 8 8 8
7 7 7 6 5 5 5 6 6 6 7 8 8 9 9 8 7 6 6 4 5 6 6 6 6 6 7 7 8 8 8 8 9 9 9 9 9 9 8 8 8 9 9 9 8 9 10 10 10 10 9 7 5 4 5 6 7 9 12 13 11 8 6 7 7 7 7 7 7 7 7 8 8 8 8 8 9 9 9 8 8 8 8 7 7 7 8 8 9 9 10 10 10 10 10 9 9 9 10 10 10 10 9
7 7 7 6 5 5 5 6 6 8 9 9 10 10 9 8 6 3 3 2 3 5 5 6 6 6 7 8 8 8 8 8 8 8 8 8 8 8 8 8 8 8 8 8 8 9 9 9 8 7 7 5 5 6 6 7 8 10 13 12 8 5 6 6 5 5 5 5 5 5 5 6 7 7 7 8 9 9 9 8 8 8 8 7 6 6 6 7 7 8 8 9 9 9 9 9 8 8 8 9 9 9 9
8 6 5 4 4 5 5 6 7 9 10 10 10 10 8 7 5 4 2 1 3 4 5 5 6 7 7 8 8 8 8 8 8 8 8 8 8 7 7 7 7 7 7 8 8 9 9 8 7 6 5 5 6 7 8 8 9 11 12 9 6 4 6 5 5 5 5 5 4 4 3 4 5 5 6 7 8 8 9 8 8 8 8 8 7 6 5 5 6 6 7 7 8 8 8 8 8 8 7 7 7 7 7
8 7 5 4 4 5 5 6 7 9 11 12 11 9 7 7 7 6 3 1 2 4 4 5 6 7 8 8 8 8 8 8 8 7 7 7 7 7 6 6 6 6 6 7 9 9 9 8 7 6 5 6 7 8 8 8 9 11 11 7 4 4 5 6 7 7 8 7 7 5 4 4 4 5 6 7 8 8 9 9 9 9 9 9 8 7 6 4 4 4 5 6 6 6 7 7 8 8 7 7 6 7 7
6 7 6 5 4 4 4 5 7 9 11 11 10 9 8 8 7 6 4 1 2 3 4 5 6 7 8 8 8 8 8 8 7 7 7 6 6 6 6 6 5 5 6 7 9 9 8 7 6 6 6 7 8 8 8 8 9 11 9 6 4 4 6 7 8 9 9 9 8 8 7 7 7 7 7 8 8 9 9 10 10 10 10 10 9 8 7 5 3 3 3 4 5 5 6 7 7 7 7 7 6 6 6
5 6 5 4 3 3 4 5 6 8 9 10 9 8 8 7 7 6 4 1 2 3 5 6 7 7 8 8 8 7 7 7 7 7 6 6 6 5 5 5 5 5 6 8 8 8 7 7 6 6 7 8 8 8 7 8 10 10 8 5 4 6 7 8 9 9 8 8 8 8 8 8 8 9 9 8 9 9 10 10 11 11 11 11 10 10 9 7 5 3 2 3 3 5 5 6 6 7 7 6 6 5 5
4 4 3 2 2 3 4 5 6 7 7 8 8 7 6 6 6 5 3 1 2 4 5 7 7 7 7 7 7 7 7 7 7 7 6 6 5 5 5 4 4 5 7 8 8 7 7 7 6 6 8 8 7 7 7 8 9 9 6 5 5 7 8 8 8 7 7 7 7 7 8 8 8 8 8 8 8 8 9 10 12 12 12 12 12 11 10 9 7 5 2 2 2 3 4 4 5 6 6 6 6 5 4
3 3 3 3 3 3 4 4 5 6 6 7 7 6 5 5 4 3 2 2 3 5 6 7 7 7 7 7 7 8 8 8 7 6 6 5 5 5 4 4 4 5 7 7 7 7 7 7 6 7 8 7 7 7 7 8 8 8 6 6 7 8 8 7 7 7 6 7 7 7 7 7 7 7 7 7 7 8 9 10 11 12 12 12 12 12 11 11 10 7 5 3 2 2 3 4 4 5 6 6 6 6 5
3 3 2 3 3 3 4 5 5 5 5 6 5 5 4 3 3 3 2 3 5 6 6 7 7 7 6 7 7 8 8 8 7 7 6 5 5 4 4 4 5 6 6 7 7 8 8 7 6 6 7 7 6 6 7 8 8 8 7 7 8 8 8 7 7 7 7 7 8 8 7 7 7 7 7 7 8 8 9 10 11 11 11 12 11 12 12 12 11 10 8 6 4 4 4 4 5 6 6 7 7 7 7
2 2 1 2 3 4 5 5 5 5 4 4 4 3 3 3 3 3 3 5 6 6 7 7 7 6 6 6 7 7 7 7 7 7 6 6 5 5 4 5 5 6 6 6 7 8 9 7 6 6 7 6 6 5 6 7 8 8 8 8 8 8 7 7 8 8 8 8 9 9 8 8 8 8 8 9 9 10 10 10 10 10 10 10 11 11 12 12 11 11 10 9 7 7 6 7 7 7 7 8 8 8 8
2 0 1 2 3 4 5 5 5 5 4 4 4 4 4 4 4 4 5 6 6 7 6 7 7 6 6 6 6 6 6 6 6 6 6 6 5 5 5 5 6 7 7 6 7 8 9 8 6 6 7 7 6 5 5 7 8 8 9 9 8 7 7 7 8 8 8 8 9 9 9 9 9 10 10 10 11 11 11 10 10 9 9 9 9 10 11 11 11 11 10 10 9 9 9 8 8 8 8 9 9 9 10
2 1 2 3 4 5 6 6 6 6 5 5 6 6 6 5 5 5 6 6 7 7 7 7 6 6 6 6 6 5 5 5 6 6 6 6 6 6 6 6 7 7 7 7 7 8 9 8 6 7 8 7 6 5 5 6 6 7 8 9 8 7 7 7 8 8 8 8 9 9 9 9 10 10 11 11 11 10 10 10 9 8 8 8 8 9 10 10 10 10 10 10 10 10 10 9 9 9 9 10 10 10 11
3 3 4 4 5 6 7 7 7 7 6 5 5 5 6 6 6 6 7 8 8 8 7 7 6 6 5 5 5 5 5 5 5 5 6 6 6 6 7 7 8 8 8 7 7 8 8 7 7 8 8 8 7 6 6 6 6 6 7 7 8 8 7 7 7 7 8 8 9 9 9 9 9 10 10 10 10 10 10 10 9 9 8 7 7 8 8 9 10 10 10 9 9 10 9 9 10 10 10 10 10 11 11
2 2 3 3 4 5 6 6 6 6 5 5 5 4 2 2 4 6 7 8 9 9 8 7 6 5 5 5 5 5 4 4 5 5 6 6 6 7 7 8 8 9 9 8 7 7 7 7 8 8 8 8 7 7 6 6 6 6 6 6 7 7 7 7 7 7 8 8 9 9 9 8 8 9 10 10 9 9 9 10 10 9 8 7 7 7 7 8 9 9 9 9 9 9 9 9 10 10 10 10 10 10 10
1 0 0 1 2 3 4 4 3 3 3 4 6 6 3 2 4 5 7 8 8 9 8 7 6 5 5 5 4 4 4 4 5 5 6 6 7 8 8 9 9 9 9 8 8 7 8 8 9 9 8 8 7 7 7 7 7 6 6 5 6 6 7 7 7 8 8 9 9 9 8 8 8 8 9 9 9 9 10 10 11 11 10 9 8 8 8 8 8 8 8 8 8 8 9 9 10 10 10 10 10 10 10
2 0 1 1 1 2 4 4 2 2 3 4 6 8 7 6 6 6 6 7 7 8 7 7 6 5 5 4 4 4 4 4 5 6 6 7 8 8 9 9 9 9 8 8 7 7 8 8 9 9 8 8 7 7 7 7 7 7 6 6 5 6 6 7 8 8 8 9 9 9 9 8 8 7 8 8 9 9 10 10 11 12 11 11 10 10 9 9 8 8 7 7 7 8 8 9 9 10 10 9 9 9 9
5 4 4 3 3 3 4 5 6 7 7 6 6 8 10 10 9 8 7 7 7 7 7 6 5 5 5 4 4 4 4 4 5 6 6 7 8 9 10 10 10 9 8 7 7 7 8 9 9 9 9 8 7 7 7 7 7 7 7 6 6 6 6 7 8 8 9 9 9 9 9 9 8 8 7 8 8 8 9 10 11 12 12 12 12 11 11 10 9 8 7 7 7 7 8 8 8 9 9 9 9 8 8
10 8 8 7 7 7 7 8 9 10 8 7 7 8 10 10 10 9 8 7 7 7 7 6 5 5 5 4 4 4 4 5 5 6 7 7 8 9 10 10 9 9 8 7 7 8 8 9 9 10 9 8 8 7 7 7 7 7 7 7 7 7 7 8 8 8 9 9 9 10 10 9 9 8 8 8 8 8 8 9 10 11 11 11 11 11 11 11 10 8 7 7 7 7 7 7 8 8 9 9 9 8 8
13 12 11 11 11 10 9 10 10 10 8 7 8 9 10 10 10 9 8 8 8 7 7 6 6 5 5 4 4 4 4 5 6 7 7 7 8 9 9 9 9 9 8 8 8 8 8 9 9 9 9 8 8 8 7 7 7 7 7 7 7 7 8 8 8 8 9 9 9 10 10 10 9 9 9 8 8 7 7 7 8 9 9 9 9 10 11 11 11 9 8 8 7 7 7 7 8 8 9 9 8 8 7
14 14 13 13 12 10 10 10 10 9 8 7 8 9 10 11 11 10 9 9 8 8 8 7 6 5 5 5 5 5 5 5 6 7 7 7 8 8 9 9 9 8 8 8 8 8 9 9 9 9 9 8 7 7 7 7 7 7 7 7 7 7 8 8 8 8 9 9 9 9 9 9 9 9 9 9 9 8 7 7 7 7 7 8 8 9 10 10 10 10 9 8 9 9 9 9 9 9 9 9 8 8 7
15 15 14 13 12 10 9 10 10 9 7 7 8 9 11 11 11 11 10 10 9 9 8 8 7 6 6 5 5 5 5 5 6 7 7 7 8 8 8 8 8 8 7 7 8 8 8 8 8 8 8 8 7 7 7 7 7 7 7 7 7 7 8 8 8 8 8 9 9 9 9 9 9 9 9 9 9 9 9 7 7 6 7 7 8 8 8 9 10 10 9 9 10 10 10 10 10 9 8 8 8 8 8
14 14 14 13 12 10 9 9 9 9 7 6 7 9 10 11 11 11 11 11 10 10 9 8 7 7 6 6 5 5 5 5 6 7 7 7 7 7 7 7 7 7 7 7 7 8 8 8 7 7 8 8 8 7 6 6 6 6 6 7 7 7 7 7 8 8 8 8 8 9 9 9 9 9 9 9 9 9 9 8 7 6 6 6 7 8 8 8 8 9 9 9 10 10 11 11 11 10 9 8 8 8 8
14 14 14 14 12 10 9 9 9 8 7 6 7 9 11 12 12 12 12 11 11 10 9 9 8 7 7 6 6 5 5 5 6 7 7 7 7 7 6 6 7 7 7 7 7 7 7 7 6 6 7 7 8 7 6 6 6 6 6 6 6 7 7 7 7 7 8 8 8 8 8 9 9 9 9 9 9 9 9 9 8 7 6 6 6 7 8 8 8 7 7 8 8 9 10 11 11 10 9 8 8 8 9
15 15 15 14 13 11 9 9 9 9 8 7 8 10 11 12 12 12 12 12 11 10 9 9 8 8 7 7 6 6 6 6 6 7 7 7 6 6 6 6 6 7 7 7 7 7 7 7 6 6 6 6 7 7 6 6 5 6 6 6 6 6 6 6 7 7 7 7 8 8 8 8 8 8 8 8 8 8 8 8 8 8 7 6 5 6 7 8 7 6 6 6 6 8 9 10 10 11 10 10 10 9 10
16 16 15 15 13 12 10 9 9 9 9 8 10 12 13 13 13 13 13 12 11 10 9 9 9 8 8 7 7 6 6 6 6 6 7 7 6 6 5 6 6 6 7 7 6 6 6 6 6 5 5 5 5 6 6 5 5 5 5 5 5 5 6 6 6 6 7 7 7 7 8 8 8 8 8 8 8 8 8 8 8 8 7 6 5 5 6 7 7 7 5 4 4 6 8 9 10 11 11 11 11 11 11
17 16 15 15 14 13 11 11 10 11 10 10 11 13 14 14 14 14 13 12 11 11 10 9 9 8 8 8 7 7 6 6 6 6 7 7 6 6 5 5 5 6 6 6 6 6 6 6 6 5 5 4 4 4 4 4 4 4 4 4 4 5 5 5 5 6 6 6 7 7 7 7 7 8 8 8 8 8 8 8 8 8 8 7 6 5 5 6 7 7 5 4 3 4 6 8 9 11 12 12 12 11 11
17 16 16 15 14 13 13 12 12 11 11 10 12 14 15 15 15 14 13 13 12 11 11 10 9 9 9 8 8 7 7 7 7 7 7 7 6 6 5 5 5 5 6 6 6 6 6 6 6 5 5 4 4 4 3 3 3 3 3 3 3 4 4 4 5 5 5 6 6 6 7 7 7 7 7 7 7 8 8 8 8 8 8 7 6 5 4 4 5 6 6 5 4 4 5 7 8 10 11 12 12 11 11
16 16 16 15 14 14 13 13 12 12 12 11 12 14 15 15 15 14 14 14 13 12 11 10 10 10 10 9 9 8 8 7 7 7 7 7 6 6 5 5 5 5 5 5 6 6 6 6 6 5 5 4 4 3 3 3 3 3 2 3 3 3 3 4 4 4 5 5 6 6 6 6 6 7 7 7 7 7 7 7 8 8 8 8 7 6 5 4 4 5 6 6 6 5 5 6 7 9 10 11 11 11 11
16 16 16 16 15 14 14 13 13 13 13 13 13 13 14 14 14 15 15 14 14 13 12 11 11 11 10 10 10 9 8 8 7 7 7 7 7 6 6 5 5 5 5 5 5 6 6 6 6 5 5 4 4 3 3 3 2 2 2 2 3 3 3 3 4 4 4 5 5 5 5 6 6 6 6 6 7 7 7 7 7 8 8 8 8 7 6 5 5 5 6 6 6 6 6 5 6 8 9 10 11 11 11
17 17 17 17 16 15 14 13 13 14 14 14 13 13 13 13 14 15 15 15 15 14 13 12 11 11 11 11 11 10 9 8 8 7 7 7 7 6 6 6 5 5 5 5 5 6 6 6 6 5 5 5 4 4 3 3 2 2 2 2 2 2 3 3 3 3 4 4 4 4 5 5 5 5 6 6 6 7 7 7 7 7 8 8 8 7 7 6 5 5 6 6 6 6 6 5 5 6 9 10 11 12 12
18 17 17 17 17 16 14 14 14 15 15 15 14 13 13 13 14 15 16 16 15 14 13 13 12 12 12 12 11 11 10 9 8 8 8 8 7 7 6 6 6 6 6 6 6 6 6 6 6 6 5 5 5 4 4 3 3 3 2 2 1 2 2 2 3 3 3 3 3 4 4 4 5 5 5 6 6 6 6 7 7 7 7 8 7 7 7 6 6 5 5 5 6 6 6 6 5 6 8 10 11 12 12
19 18 18 18 17 16 16 15 15 16 16 16 15 14 13 13 14 15 16 17 16 15 14 13 13 13 13 13 12 11 10 10 9 8 8 8 8 7 7 6 6 6 6 6 6 6 6 6 6 6 6 5 5 5 5 4 4 3 3 2 2 1 1 1 2 2 2 2 2 3 3 4 4 4 5 5 5 6 6 7 7 7 7 7 7 7 7 7 6 5 5 5 6 6 6 7 7 7 8 10 11 12 13
19 19 19 18 18 18 17 16 16 17 17 16 15 14 14 14 14 15 17 18 17 16 15 14 13 13 13 13 13 12 11 10 10 9 9 9 8 8 7 7 7 7 7 7 7 7 7 7 7 6 6 6 6 6 5 5 5 4 4 3 3 2 2 1 1 1 1 1 1 2 2 3 3 4 4 5 5 6 6 6 7 7 7 7 7 7 7 7 7 6 6 6 6 7 7 8 8 9 9 10 11 12 13
20 19 19 19 19 18 18 17 17 18 18 17 16 15 14 14 14 15 17 18 18 17 16 15 14 14 13 13 13 13 12 11 10 10 10 10 9 9 8 8 7 7 8 8 8 8 8 8 7 7 7 7 7 6 6 6 6 5 5 5 4 3 3 2 2 2 1 1 0 1 1 2 2 3 4 4 5 5 6 6 7 7 7 7 7 7 7 7 7 7 7 7 7 7 8 8 9 10 10 11 12 12 13
20 20 20 20 19 19 19 18 19 19 19 18 17 15 15 15 15 16 17 19 19 18 17 16 15 14 14 13 13 14 13 12 11 11 10 10 10 10 9 8 8 8 8 8 8 8 8 8 8 8 8 8 8 7 7 7 7 7 6 6 5 5 4 4 4 3 3 2 1 1 0 1 2 3 3 4 5 5 6 6 7 7 7 7 8 8 8 8 8 7 8 8 8 8 9 9 10 10 11 11 12 12 13
21 20 20 20 20 20 20 20 20 21 21 19 18 16 15 16 16 17 18 20 20 19 18 17 15 15 14 14 14 14 14 14 12 12 11 11 11 10 10 9 9 9 9 9 9 9 9 9 9 9 9 9 9 8 8 8 8 8 8 7 7 6 6 5 5 5 4 3 3 2 2 2 2 3 4 5 5 6 6 7 7 7 8 8 8 8 8 8 8 8 8 8 9 9 10 10 10 11 11 11 12 12 13
21 21 21 21 21 20 20 20 21 22 22 21 19 18 17 17 17 18 19 20 20 20 19 17 16 15 15 14 14 15 15 14 13 12 12 12 11 11 11 10 10 10 10 10 10 10 10 10 10 10 10 10 10 9 9 9 9 9 9 9 8 8 7 7 6 6 5 5 4 4 4 4 4 4 5 5 6 6 7 7 8 8 8 8 8 8 9 9 9 9 9 9 9 10 10 10 11 11 11 12 12 13 13
22 21 21 21 21 21 20 21 22 23 23 22 21 19 18 18 18 18 18 19 20 20 19 18 17 16 16 15 15 15 15 14 14 13 12 12 12 12 12 11 11 11 11 11 11 11 11 11 11 11 11 11 11 11 11 11 11 10 10 10 10 9 9 8 8 7 7 6 6 6 5 5 6 6 6 7 7 7 7 8 8 8 8 9 9 9 9 9 9 9 10 10 10 10 11 11 12 12 12 12 13 13 13
23 22 22 21 21 21 21 22 23 24 24 23 21 20 18 18 18 18 18 18 19 20 20 19 18 17 17 16 16 16 15 15 14 14 14 13 13 13 13 13 12 12 12 12 12 12 12 12 12 12 12 12 12 12 12 12 12 12 12 11 11 11 11 10 10 9 8 8 8 7 7 7 7 8 8 8 9 8 8 8 8 9 9 9 9 9 10 10 10 10 10 10 11 11 11 12 12 13 13 13 14 14 14
24 23 22 22 22 22 21 22 24 24 24 23 21 20 18 18 19 18 18 18 19 20 21 21 20 19 18 17 17 16 16 15 15 15 15 14 14 13 14 14 13 13 13 13 13 13 13 13 13 14 14 14 14 14 14 13 13 13 13 13 13 13 12 12 11 11 10 10 9 9 9 9 9 9 9 10 10 10 10 10 9 10 10 10 10 10 10 10 11 11 11 11 11 12 12 13 13 13 13 14 14 14 14
25 24 24 23 23 22 22 23 24 25 24 23 21 20 19 19 19 19 18 18 19 21 22 22 21 20 19 18 17 17 16 16 16 16 15 15 14 13 13 13 14 14 15 15 14 14 14 14 14 15 15 15 15 15 15 15 15 15 15 15 14 14 14 14 13 13 12 11 11 11 11 10 10 10 10 11 11 11 11 11 11 11 11 11 11 10 10 11 11 12 12 12 12 12 13 13 13 14 14 14 14 14 15
26 26 25 24 23 23 23 23 24 25 24 23 22 21 20 20 20 20 20 19 20 21 22 23 22 21 20 19 19 18 18 17 17 17 16 15 14 13 13 13 13 15 16 16 16 16 16 16 16 16 16 16 16 17 17 17 17 17 17 16 16 16 16 15 15 14 14 13 12 12 12 12 12 12 12 12 12 12 12 12 12 12 12 13 12 12 12 12 12 12 12 12 13 13 13 14 14 14 14 14 14 15 15
28 27 26 25 24 23 23 24 25 25 25 24 23 22 21 21 21 21 21 20 20 21 22 23 23 22 21 21 21 20 20 19 18 17 16 15 14 13 13 13 13 13 14 15 16 17 18 18 18 18 18 18 18 19 19 19 19 19 18 18 18 18 17 17 16 16 15 15 14 14 14 14 13 13 13 13 13 13 13 13 13 13 14 14 14 14 13 13 13 13 13 13 13 13 14 14 14 14 14 14 14 15 15
28 28 27 26 25 24 24 25 25 26 25 24 23 23 22 22 22 22 22 22 21 22 22 23 24 23 23 22 22 22 21 20 18 17 16 16 15 14 14 15 16 15 14 14 12 13 15 16 17 17 18 19 19 20 21 21 21 20 20 20 19 19 19 19 18 18 17 17 16 15 15 15 15 15 14 14 14 14 14 14 14 14 14 15 15 15 14 14 13 13 13 13 13 13 14 14 14 15 15 15 15 15 15
29 29 28 27 26 25 25 26 26 26 25 24 23 23 23 23 23 23 23 23 22 22 22 23 24 24 24 24 24 23 22 21 19 18 17 18 18 17 16 16 16 15 13 13 13 12 12 13 13 14 16 17 18 19 20 21 22 22 22 21 21 21 21 20 20 19 19 19 18 17 16 16 16 16 16 16 16 16 15 15 15 15 15 15 16 15 15 15 14 14 14 14 14 14 14 14 15 15 15 15 15 16 16
30 30 29 28 27 26 26 26 27 27 26 24 24 23 23 23 23 23 23 23 23 22 22 22 23 24 25 25 25 24 23 22 20 19 18 18 19 19 19 18 15 13 11 12 14 14 13 12 12 12 14 15 16 16 17 19 20 21 22 22 22 22 22 22 22 21 21 21 20 19 18 17 17 17 17 17 17 17 17 17 16 16 16 16 16 16 16 15 15 14 14 14 14 14 14 15 15 15 15 15 16 16 17
32 31 30 29 28 28 27 27 28 28 26 25 24 23 22 22 23 23 23 23 23 23 22 21 22 23 24 25 25 25 24 23 22 20 20 19 19 20 20 20 19 17 14 12 12 12 12 12 10 8 11 12 13 12 13 14 15 17 19 21 22 23 23 24 23 23 23 23 23 22 21 20 19 18 18 18 18 18 18 18 18 18 17 17 17 17 17 16 15 15 15 15 14 14 14 15 15 15 15 16 16 17 17
33 32 31 30 29 29 28 29 29 28 27 25 24 23 22 22 23 23 24 24 24 24 22 21 21 22 23 24 25 25 25 24 23 22 21 21 21 21 21 21 21 21 20 18 15 13 12 12 10 8 9 10 11 12 12 12 12 14 15 17 19 21 23 24 25 25 25 25 25 24 23 22 21 20 20 20 19 19 19 19 19 19 19 18 18 18 18 17 16 15 15 14 14 14 14 14 15 16 16 17 17 18 18
32 32 32 31 30 30 29 29 29 29 27 26 24 23 23 23 23 24 24 24 24 24 23 22 21 21 22 23 25 26 26 26 25 24 23 23 23 22 22 21 21 21 21 21 20 18 16 14 13 13 11 10 12 14 15 15 15 15 15 15 17 18 20 22 24 25 26 27 27 27 26 25 24 23 22 21 21 20 20 20 20 19 19 19 19 19 18 18 17 16 15 14 13 13 13 14 15 16 17 18 19 19 20
31 31 31 31 30 30 30 30 30 29 28 26 24 23 23 23 23 24 24 25 25 24 24 23 22 21 21 22 24 26 26 26 26 25 25 24 24 24 23 22 22 22 21 21 22 22 21 21 20 19 17 16 15 16 17 19 19 18 18 18 18 18 19 20 22 24 25 27 28 29 28 27 26 25 24 23 22 22 21 21 20 20 20 20 19 19 18 18 17 17 16 14 13 12 13 15 16 18 19 20 20 20 20
30 31 31 31 31 30 30 30 30 29 28 26 25 23 23 23 23 24 25 25 25 25 24 23 22 21 21 22 23 25 26 26 26 26 26 26 26 25 24 24 23 23 22 23 23 23 23 24 24 24 24 24 23 22 20 21 21 22 21 21 21 21 21 21 22 22 23 25 27 28 29 29 28 27 26 25 24 23 23 22 21 20 20 20 19 19 19 18 18 18 17 15 13 13 14 17 19 21 22 22 21 21 21
Wind_Direction
130 109 101 102 106 112 120 128 133 137 138 135 131 126 114 111 105 100 97 91 88 81 75 70 67 67 69 72 76 83 90 93 95 95 95 94 94 94 96 98 99 101 103 107 111 112 107 103 101 102 103 101 96 89 78 64 18 348 346 350 358 8 15 32 57 71 54 42 37 34 30 26 22 20 20 17 16 22 30 36 40 43 45 47 46 43 41 43 46 47 44 42 38 33 28 25 24 28 33 40 41 39 34
125 105 98 98 102 106 108 104 103 103 103 103 101 98 96 98 97 95 92 89 83 76 70 63 59 58 63 71 79 85 91 94 95 95 95 95 95 96 97 98 99 101 103 107 111 110 105 103 104 105 103 100 94 84 66 37 1 351 356 3 9 14 20 33 51 64 58 47 40 35 32 28 26 27 27 27 30 36 40 41 41 40 41 44 47 47 42 41 42 47 50 52 51 46 38 31 28 31 36 45 45 39 33
123 109 105 105 107 107 103 94 85 79 80 86 90 93 95 98 99 99 98 96 91 83 76 71 65 60 59 69 80 87 91 94 95 95 95 95 96 97 98 98 99 100 103 110 113 110 103 104 106 107 104 98 91 79 61 28 358 355 6 14 18 23 30 41 50 56 56 49 42 36 33 32 33 35 34 37 41 46 46 44 41 39 40 41 47 50 46 45 45 44 42 44 46 46 45 40 38 38 41 46 43 33 19
129 118 115 119 117 110 106 106 101 92 87 88 88 89 93 98 104 107 106 103 99 93 88 88 84 78 73 74 80 87 90 92 94 94 94 95 96 97 97 98 98 99 103 110 113 110 105 106 108 106 101 95 87 78 63 28 355 358 13 21 25 33 42 48 51 51 51 49 44 38 36 38 41 42 41 42 47 49 49 46 42 39 40 40 42 45 45 43 44 46 45 42 38 36 37 38 38 40 43 46 42 31 18
131 126 131 138 127 115 111 113 113 108 99 89 83 82 83 88 96 103 104 102 100 98 98 99 96 92 90 89 86 86 89 90 91 91 92 93 95 95 96 96 96 97 99 104 108 108 106 107 107 103 96 88 81 75 66 28 354 7 21 26 34 45 51 53 51 49 48 47 44 41 41 44 45 45 43 44 46 48 48 47 44 42 42 41 40 41 41 39 34 33 36 39 39 38 36 34 33 34 38 42 39 32 29
133 132 138 141 129 119 118 115 111 108 101 88 79 74 71 73 82 92 96 95 95 96 98 95 93 93 92 92 91 88 86 88 89 90 91 92 92 92 93 94 94 94 95 97 100 104 106 108 106 99 90 81 74 69 68 12 358 17 25 32 45 55 57 53 50 48 47 45 44 43 43 45 46 45 44 45 46 46 46 46 45 44 43 42 41 41 40 39 36 31 23 20 27 36 40 39 37 36 37 38 34 29 28
133 129 132 132 127 125 125 117 110 108 103 86 73 65 63 70 80 89 91 87 86 89 93 88 88 91 90 87 86 84 82 85 89 90 90 90 90 90 90 91 92 92 93 94 97 103 107 108 105 98 90 81 76 75 75 25 11 19 28 42 55 60 58 55 52 50 48 47 45 43 43 44 45 45 44 44 46 47 46 46 46 45 44 43 42 43 43 43 41 38 33 22 20 26 33 37 41 43 40 39 36 29 24
128 123 124 127 129 131 131 122 114 112 112 94 76 63 63 73 83 88 88 89 91 90 81 80 84 88 89 86 82 78 78 82 88 92 91 90 89 88 88 89 91 92 93 94 98 103 108 109 107 102 97 93 94 101 103 52 33 33 40 56 63 63 59 56 55 56 55 51 48 46 44 45 46 46 45 45 45 44 43 42 41 42 43 42 43 45 48 48 47 46 44 35 30 29 30 27 27 30 32 34 36 35 29
132 129 128 125 129 135 138 131 128 128 123 101 84 77 73 77 82 85 88 95 98 89 76 75 79 85 87 86 83 79 78 82 88 92 91 89 88 86 87 89 90 92 93 96 100 105 109 111 110 109 110 114 125 136 109 62 50 52 61 66 66 63 59 56 57 59 61 59 56 53 50 50 50 48 45 43 41 38 34 31 33 36 40 42 44 47 51 55 56 55 53 46 40 38 38 34 30 27 25 20 19 23 28
138 137 136 130 131 138 142 136 138 141 128 107 93 85 80 80 81 85 92 100 95 83 76 74 78 83 87 87 85 83 81 84 88 90 90 88 86 86 86 88 90 92 94 97 101 105 108 112 114 117 122 132 142 135 88 61 60 67 72 69 66 64 62 57 57 61 63 63 64 63 58 56 54 50 43 39 33 27 24 23 27 32 37 40 43 47 52 56 59 62 62 58 51 46 45 43 41 38 35 28 23 23 25
134 136 141 142 143 144 143 136 135 130 119 108 96 87 83 84 87 95 105 100 83 75 76 76 80 84 88 88 87 86 86 86 88 89 88 86 85 84 86 87 89 92 94 98 100 101 104 110 116 121 127 135 132 107 79 68 71 77 76 71 67 65 65 60 59 63 69 69 70 70 66 60 56 49 40 34 29 25 22 23 23 25 31 36 40 45 50 55 60 64 66 66 62 56 52 50 47 45 44 39 37 36 35
128 138 154 158 153 145 139 131 128 125 118 106 92 83 82 87 100 127 144 97 67 66 73 79 84 88 91 91 90 89 89 88 87 86 86 85 84 84 85 87 89 92 95 99 99 97 99 105 112 118 123 119 102 85 77 76 80 80 77 74 72 68 62 54 50 54 65 72 78 80 73 63 57 49 37 30 27 23 20 22 24 26 29 31 34 40 48 56 61 64 66 68 66 63 59 55 51 49 49 47 44 43 43
137 152 171 165 151 141 135 131 131 128 118 102 88 82 88 105 137 182 205 133 65 62 72 81 88 92 95 94 93 92 91 89 88 86 85 84 83 84 84 86 89 93 98 101 98 95 95 101 106 110 109 93 82 78 78 80 82 80 75 75 75 66 51 37 31 36 46 59 69 76 73 61 54 47 36 30 25 22 20 21 25 26 25 27 28 31 38 51 60 63 65 65 67 66 60 56 53 51 49 50 50 47 44
148 154 160 157 148 139 133 134 135 130 118 106 101 104 121 144 165 187 215 170 74 67 78 89 95 98 99 97 96 95 94 92 89 87 85 85 83 84 84 85 89 95 101 101 97 95 97 100 104 104 95 82 80 82 83 84 82 79 76 77 74 54 33 26 32 42 50 53 56 58 61 53 46 40 37 31 26 24 24 25 27 28 29 31 30 28 31 40 56 68 67 70 68 63 56 53 51 48 46 45 48 47 40
154 150 150 146 143 143 141 138 135 132 126 122 126 139 156 168 178 188 201 154 68 75 93 101 103 103 103 101 100 98 97 95 93 90 87 85 85 84 85 86 90 96 100 98 97 99 102 103 101 96 86 82 85 89 89 88 83 81 81 84 74 52 38 37 46 55 59 60 60 60 61 57 52 47 43 36 32 29 27 29 31 32 34 35 35 34 33 36 47 67 76 74 65 56 50 46 44 42 41 39 41 42 39
154 145 142 132 131 139 142 136 134 136 138 140 147 159 170 177 183 189 193 164 82 95 108 111 110 109 107 105 104 103 102 99 96 93 90 88 86 86 86 89 93 96 96 96 99 104 106 103 97 88 83 87 92 96 94 91 87 86 88 87 69 52 47 51 58 63 67 69 67 65 63 63 61 57 50 44 38 34 31 30 32 35 36 38 39 40 40 39 43 56 75 67 59 54 47 42 37 34 32 32 33 34 34
141 126 116 102 105 121 132 130 133 142 152 157 163 171 178 183 188 193 195 175 121 117 119 117 114 112 111 111 112 112 109 103 98 95 93 90 89 88 89 94 97 97 96 99 104 108 108 102 94 87 86 94 100 100 96 93 92 92 92 82 63 54 55 59 61 63 67 70 70 67 65 65 65 61 56 49 43 38 35 34 35 36 35 36 37 39 42 42 43 47 56 53 50 46 41 34 30 25 22 19 20 22 23
108 96 89 83 88 107 125 129 136 149 164 173 179 181 184 188 194 198 193 158 134 129 126 121 118 116 117 121 125 123 114 107 101 97 95 93 91 91 94 100 100 99 100 106 111 112 107 101 95 91 92 101 104 100 94 94 94 94 88 76 65 61 59 59 58 56 57 59 61 61 60 61 61 60 55 48 42 38 36 37 39 39 35 34 33 35 39 42 44 45 47 46 39 27 17 13 13 13 13 11 10 12 13
81 78 85 88 97 108 123 133 141 152 166 179 186 186 185 186 188 186 169 148 139 135 129 124 120 120 124 132 129 122 113 109 105 102 99 97 95 97 101 103 102 102 106 114 118 116 108 103 98 96 99 105 104 95 89 92 93 90 81 73 68 65 61 58 55 52 50 50 51 51 51 52 52 50 46 40 35 34 35 41 44 44 39 36 31 30 33 39 43 45 48 48 45 36 20 15 11 10 12 13 13 13 13
44 57 99 109 111 116 127 137 143 148 155 166 171 171 165 163 163 159 151 145 141 137 132 128 127 128 131 130 119 109 106 107 107 105 104 102 101 102 104 104 103 105 110 118 122 118 112 109 105 102 100 103 100 90 83 86 89 87 79 73 69 65 60 56 53 51 48 48 49 48 48 48 48 46 41 35 32 32 36 43 49 50 46 41 33 27 29 34 39 43 47 50 50 46 40 33 27 23 21 22 22 22 23
338 3 137 127 122 123 128 133 134 134 134 140 142 140 133 133 139 145 145 145 143 140 136 136 136 134 130 120 109 103 102 102 103 104 104 103 103 103 103 105 106 110 114 119 123 122 119 121 115 100 93 94 93 84 76 79 84 86 84 80 73 64 56 53 51 49 46 47 48 48 48 50 52 50 45 39 35 34 35 41 48 52 51 47 39 31 27 30 35 40 44 46 48 48 45 40 35 32 31 31 31 31 33
280 179 139 126 121 124 126 126 124 121 122 132 141 141 131 125 131 143 148 151 149 146 144 144 138 131 123 114 107 102 101 100 100 100 102 102 101 102 106 108 110 113 116 121 124 125 124 125 113 92 85 87 86 80 73 74 77 81 84 85 81 71 59 53 50 48 45 45 46 47 48 53 55 54 51 45 39 34 34 36 41 47 51 50 44 36 29 30 33 37 39 40 41 43 42 38 35 34 34 34 35 36 37
237 164 135 123 121 127 130 129 126 122 121 134 146 143 128 129 138 150 157 160 158 154 149 142 133 126 123 116 109 105 102 101 99 99 101 102 104 107 110 112 114 115 116 119 121 123 123 118 102 87 84 86 85 81 77 75 75 76 77 80 81 77 67 58 52 47 44 43 43 44 47 53 57 57 54 50 42 35 33 32 34 39 44 47 45 39 32 32 35 37 36 34 34 36 36 33 30 29 31 34 36 37 38
225 159 137 123 122 129 134 132 127 123 123 135 135 121 102 142 157 159 163 164 162 156 146 136 130 129 129 123 117 112 108 106 102 102 103 107 111 113 116 116 116 116 116 116 116 114 112 105 95 89 89 90 89 85 83 81 79 76 72 71 71 71 68 61 53 46 41 40 40 41 44 50 56 58 56 51 43 36 30 30 32 34 37 39 40 37 33 34 37 39 36 32 30 30 29 26 25 25 28 33 36 37 36
222 11 28 74 100 111 115 109 103 113 137 147 138 131 144 222 208 180 167 166 162 154 143 136 134 138 138 132 126 120 115 112 108 108 110 114 118 120 121 120 118 117 117 116 113 108 103 97 94 93 94 92 90 88 87 85 83 80 77 71 66 62 60 55 48 42 38 37 37 39 42 46 51 55 55 52 46 36 29 27 30 33 35 34 33 31 30 32 38 41 36 31 28 26 23 22 20 21 24 31 36 36 34
159 231 263 303 352 87 96 104 126 193 206 186 164 159 170 201 216 202 178 169 162 154 144 141 144 149 148 142 137 133 126 119 115 113 116 121 125 126 125 123 121 120 119 117 112 106 101 97 96 96 96 93 90 88 87 85 83 81 78 75 69 61 54 48 43 38 35 34 35 38 41 44 47 49 50 51 47 40 31 27 28 31 31 30 29 28 28 29 34 38 36 30 26 23 20 20 18 18 22 29 34 36 33
169 186 195 216 218 177 144 158 187 210 220 213 197 187 186 198 206 203 186 175 167 160 154 153 155 158 158 154 150 144 137 126 119 118 121 126 130 130 128 127 125 124 123 120 115 109 104 100 99 98 97 94 90 87 85 83 80 78 76 73 69 63 57 50 44 39 36 35 36 38 41 41 42 42 43 46 47 43 37 32 32 32 29 24 23 24 25 27 29 31 31 25 22 21 20 18 16 16 19 25 31 35 33
174 184 192 204 210 204 190 192 204 215 222 224 221 214 206 204 203 199 190 182 175 169 164 162 163 166 165 163 160 153 145 133 123 121 125 131 135 135 133 131 130 129 128 125 120 113 107 102 99 98 97 94 91 87 84 81 78 75 71 69 67 63 59 54 48 43 38 37 37 38 39 40 39 39 38 38 41 43 42 38 39 38 33 24 18 17 19 21 24 26 26 20 18 19 19 15 14 15 17 21 27 31 32
179 186 194 206 213 215 213 216 221 223 223 226 228 226 220 212 204 197 191 186 181 176 170 167 169 173 172 170 167 161 151 139 129 126 129 135 139 139 138 136 134 134 133 129 122 115 107 101 97 96 96 94 91 87 84 81 77 73 69 66 63 61 58 54 49 44 41 39 38 38 38 37 36 36 35 35 35 38 41 45 47 45 38 29 20 15 13 14 18 20 21 16 13 11 11 11 12 14 16 20 22 23 24
185 190 198 210 218 221 222 229 233 231 223 223 225 225 221 215 207 198 192 188 185 182 176 174 175 180 180 177 171 164 156 144 135 131 133 140 143 144 142 140 138 136 133 128 121 113 106 100 96 96 97 94 91 87 84 81 77 73 68 63 60 58 55 52 48 45 42 39 38 37 36 36 35 34 33 33 32 33 35 42 50 51 44 35 25 16 11 10 13 16 18 13 7 5 5 7 10 14 17 17 15 12 13
192 194 200 212 219 221 223 229 234 232 221 220 222 221 217 213 207 200 193 190 189 186 182 179 181 185 187 184 176 167 160 149 140 136 138 144 147 147 145 142 138 134 131 125 118 113 108 103 100 100 101 99 93 87 84 81 77 71 66 61 58 55 52 50 47 44 42 40 38 37 36 34 33 32 31 31 31 30 31 36 44 49 45 35 25 17 14 10 12 16 17 11 4 1 0 3 7 12 16 13 8 3 1
198 199 202 212 219 221 220 223 229 229 219 216 217 216 213 210 208 204 197 193 192 191 187 184 185 189 192 187 179 171 163 154 145 142 143 148 150 150 147 142 137 132 127 122 117 114 112 109 105 103 104 103 97 90 84 80 76 71 66 61 57 54 51 49 46 44 42 40 38 37 36 34 33 31 30 29 29 28 29 31 36 43 45 37 26 16 12 8 12 19 19 12 3 357 356 357 0 4 8 8 1 354 351
201 203 204 211 219 223 220 219 223 226 218 211 209 210 211 209 208 206 202 198 195 193 192 190 190 193 196 191 183 176 168 160 151 147 147 151 154 152 148 142 137 132 128 125 120 118 116 113 107 101 101 101 100 95 87 80 76 72 67 62 58 55 52 49 47 44 43 41 39 38 36 35 33 32 30 29 28 27 27 27 29 33 40 41 30 16 6 3 8 18 25 16 3 354 350 351 353 354 356 357 353 347 344
202 205 206 211 218 223 223 218 221 226 221 209 204 208 212 211 209 208 205 201 199 197 196 194 195 197 199 196 188 180 174 167 157 152 152 155 157 155 150 144 139 136 134 131 128 124 121 115 106 99 96 97 98 97 93 84 77 72 69 65 60 56 53 50 48 46 44 42 41 40 38 36 35 33 31 30 28 27 27 26 26 28 32 40 37 21 7 359 359 8 22 18 6 352 344 344 345 346 346 345 343 341 339
203 207 209 212 216 221 222 218 221 227 226 211 207 210 215 214 211 209 206 203 201 200 199 197 197 200 203 200 193 185 180 174 165 158 156 158 160 158 154 149 146 144 142 139 135 132 126 118 112 106 100 96 95 95 94 88 81 74 71 67 63 59 55 52 50 48 46 45 43 42 40 39 37 35 33 31 29 28 27 26 26 25 28 36 41 32 12 358 354 357 8 14 5 349 338 338 339 339 340 340 340 339 339
205 209 212 213 215 217 218 218 221 227 230 217 212 215 220 218 213 209 206 203 203 203 201 199 199 201 204 203 197 190 185 181 173 166 163 163 164 163 161 158 155 153 150 146 143 139 133 127 122 119 113 107 101 99 96 94 88 82 76 72 67 62 58 55 53 52 50 49 47 45 43 41 40 38 36 34 32 29 27 27 26 25 25 30 38 40 24 3 351 349 352 351 349 342 336 334 333 334 335 337 338 337 338
207 210 214 215 215 214 215 216 220 226 231 222 218 221 225 222 217 211 208 206 205 204 202 200 199 201 204 204 201 195 189 185 181 175 170 169 169 168 168 166 165 162 158 153 150 148 143 138 135 133 129 124 118 113 109 106 105 102 95 86 79 73 67 61 58 56 55 53 51 48 46 43 42 40 39 36 34 31 29 28 26 26 25 25 30 36 35 14 353 344 346 341 334 331 335 334 332 332 333 335 335 335 334
209 210 212 214 215 215 214 216 219 224 230 227 224 226 230 227 220 213 210 208 207 206 204 202 201 202 204 205 203 198 192 189 185 182 179 176 175 175 175 174 174 171 166 162 160 157 154 150 148 146 143 138 135 133 129 126 127 125 118 108 101 94 86 76 68 62 59 56 53 51 48 46 43 41 40 38 36 34 31 29 28 26 25 23 24 26 27 18 358 348 348 343 334 326 328 332 332 331 331 331 330 329 328
211 209 210 212 214 215 216 217 218 221 228 230 229 231 235 231 224 216 212 211 209 207 206 204 203 203 204 206 205 201 195 191 190 188 186 184 182 181 181 181 181 180 176 172 170 168 165 161 159 157 156 154 153 153 151 150 149 146 134 124 116 106 99 90 80 71 63 59 55 52 49 47 44 42 41 39 38 36 34 31 29 27 25 23 21 20 19 13 1 352 348 342 335 328 324 327 327 325 324 323 322 321 321
214 211 210 211 213 215 217 218 217 219 227 230 233 236 239 235 226 218 214 214 212 209 207 206 205 204 205 206 206 203 198 195 193 193 193 192 189 188 188 188 187 187 187 184 181 179 177 172 170 169 168 167 167 168 169 171 174 170 156 138 121 109 100 92 86 78 70 62 57 53 50 47 45 43 42 40 39 37 35 33 30 28 25 22 19 16 15 11 3 352 343 339 332 326 323 323 319 315 314 313 314 314 314
218 215 213 212 213 214 215 216 217 220 226 231 235 238 241 236 228 221 217 216 214 212 209 208 207 206 206 207 208 205 201 198 197 197 199 198 197 195 195 195 195 194 193 192 192 191 188 184 182 180 179 179 179 181 182 186 191 192 184 169 146 123 108 98 91 83 76 67 59 54 52 49 48 45 43 41 38 36 33 31 28 25 23 20 16 13 10 7 1 350 339 334 328 323 320 316 308 302 303 306 308 309 310
219 217 215 214 214 212 212 213 217 222 228 232 235 238 240 238 231 223 219 218 216 213 211 210 210 209 208 208 209 207 204 200 199 201 202 204 203 201 201 202 202 201 200 199 199 199 197 195 193 190 189 189 190 192 193 197 201 203 201 195 184 167 142 122 104 94 84 73 64 57 53 51 49 46 43 39 35 31 27 25 22 20 18 14 12 9 5 1 357 349 337 326 319 314 311 307 301 297 297 300 303 305 307
221 219 217 216 215 212 210 212 216 223 229 233 235 237 238 238 233 226 221 220 218 215 212 212 212 213 212 210 210 209 207 203 203 204 206 207 207 206 206 207 210 209 208 205 205 205 204 203 201 200 199 200 201 202 204 206 210 212 212 211 206 201 191 179 165 147 121 91 73 62 55 51 47 42 38 33 27 23 19 15 13 12 10 7 5 2 0 356 352 346 336 323 312 306 303 302 299 297 297 298 301 303 305
222 221 219 218 216 213 210 210 215 222 229 233 235 235 236 238 235 230 225 223 220 216 213 213 214 215 215 213 212 211 209 206 205 206 208 210 210 210 210 211 214 215 214 213 211 210 210 209 208 208 208 210 211 211 213 214 217 218 219 219 217 215 211 209 209 208 207 195 148 71 51 42 34 28 23 19 14 10 6 3 2 1 1 359 357 354 353 351 347 341 333 324 315 308 303 300 299 299 300 301 302 304 306
222 221 220 219 217 215 211 210 214 221 228 232 234 234 235 236 235 231 227 225 223 219 215 214 215 216 216 216 215 214 212 208 206 207 209 212 213 214 214 215 216 218 219 218 217 216 215 215 215 215 216 217 218 219 220 221 221 223 224 224 224 222 220 220 222 223 224 228 231 246 295 348 357 2 1 359 358 355 354 353 352 351 351 350 347 346 346 344 342 337 332 325 319 312 307 303 301 301 302 303 304 305 307
221 220 218 217 217 215 213 210 214 221 227 231 233 234 234 234 234 232 229 228 225 221 218 216 216 217 217 217 218 218 216 211 208 208 210 212 214 216 217 218 219 221 222 222 221 221 221 221 222 222 224 225 225 225 225 226 226 227 228 229 229 228 226 225 227 230 232 235 241 250 268 291 316 331 339 342 342 342 342 341 342 341 341 340 339 339 338 337 335 333 329 324 320 316 312 308 305 304 304 303 304 305 308
222 220 218 217 216 215 213 211 214 220 226 230 232 234 234 234 235 234 232 230 228 224 220 218 217 217 217 218 220 221 220 216 211 210 211 213 214 216 218 220 222 223 224 225 225 224 225 226 227 229 230 231 231 231 231 231 231 231 231 232 232 232 231 231 232 234 236 241 245 253 266 282 297 311 321 326 328 330 330 331 332 332 332 331 331 331 331 330 329 328 325 322 319 317 314 312 310 308 307 305 305 306 307
223 221 219 218 216 215 213 212 215 221 227 230 232 234 235 236 237 238 236 233 230 227 223 220 219 218 218 219 221 222 222 219 215 213 213 213 215 216 218 220 223 226 227 228 228 228 228 229 231 233 235 236 237 237 236 236 236 236 235 235 235 235 235 235 235 237 240 245 250 257 267 278 290 300 308 314 318 320 321 322 323 322 322 323 323 323 324 324 323 322 321 320 319 317 315 314 312 310 309 307 307 307 308
222 221 219 218 217 215 213 213 217 223 228 231 233 234 235 237 239 241 240 236 233 229 226 222 220 220 219 220 222 223 223 221 218 216 215 214 215 216 219 220 223 226 229 231 232 232 232 233 234 236 238 239 241 242 242 241 241 240 239 238 237 238 239 239 238 240 243 248 253 259 266 275 285 293 300 305 309 311 312 313 314 314 314 315 316 317 317 316 317 318 319 319 318 317 316 315 313 312 310 309 309 309 309
221 220 219 218 217 215 213 214 218 224 229 232 233 234 235 236 240 242 241 238 233 230 227 224 222 221 220 221 223 224 224 222 220 219 218 217 217 217 220 222 224 227 229 232 234 235 236 237 238 239 240 242 244 245 245 245 245 244 243 241 240 240 241 241 242 243 245 248 254 259 266 273 280 287 293 298 301 304 305 306 306 306 306 307 308 310 309 310 311 314 317 318 318 318 317 315 314 312 311 310 310 309 309
220 220 218 218 217 216 214 215 219 225 229 232 233 233 233 234 237 240 241 238 233 230 228 225 223 222 222 222 224 225 224 224 223 222 220 221 221 221 223 226 227 229 230 232 235 238 240 241 243 244 245 245 247 248 248 248 248 248 247 245 244 243 242 243 243 244 246 249 254 259 264 270 276 282 287 292 295 298 300 301 301 301 300 301 303 304 304 305 308 312 315 317 318 318 317 315 313 312 310 310 310 309 309
218 220 219 219 218 217 215 216 221 226 230 231 231 231 230 231 234 238 240 238 235 231 229 227 225 223 222 222 223 224 224 224 225 225 225 224 223 223 223 226 229 233 234 236 238 240 241 243 245 248 250 250 251 251 251 251 250 250 249 248 247 246 245 244 244 245 247 251 255 259 263 268 273 277 282 286 289 292 294 296 297 297 297 298 299 301 302 303 306 310 314 316 317 316 315 313 312 310 309 309 309 309 309
217 219 220 220 219 218 216 216 221 227 230 231 231 230 229 227 230 235 238 239 237 234 231 229 227 225 223 223 223 223 223 224 225 226 226 226 223 221 223 225 228 233 238 241 245 247 245 245 248 251 254 255 256 255 254 253 252 252 252 251 250 249 248 247 246 246 248 252 256 260 263 267 270 274 278 281 284 286 289 290 292 292 293 294 296 297 300 301 304 308 312 314 314 313 312 311 310 309 308 308 308 309 309
216 219 220 221 221 220 217 217 222 227 231 232 232 231 230 227 228 232 236 238 238 236 233 231 228 226 224 225 225 225 225 224 225 225 224 225 222 219 220 226 228 230 237 240 247 254 252 251 252 255 257 258 257 257 256 255 254 253 253 253 253 252 251 250 249 249 250 253 256 259 262 265 268 272 275 277 280 282 284 285 287 288 289 290 291 293 296 298 301 305 309 311 311 310 309 309 308 308 308 308 308 308 308
215 218 220 222 222 221 219 219 222 228 232 233 233 232 231 229 228 231 234 238 240 240 237 233 230 228 226 227 228 229 228 226 225 224 224 225 225 223 220 224 227 229 233 237 240 246 257 259 261 260 259 258 258 258 257 257 255 254 254 254 254 254 255 254 254 253 254 255 257 259 260 263 266 270 272 275 277 279 280 282 283 284 285 287 288 290 292 295 298 302 306 309 309 308 308 308 308 308 308 307 307 307 307
214 217 220 222 222 222 221 221 224 228 232 234 234 233 233 231 230 231 234 238 241 243 241 238 234 231 229 229 231 232 232 229 227 225 225 226 228 230 230 228 224 223 229 235 239 243 253 260 262 262 261 261 262 263 262 261 258 255 254 255 255 256 257 257 257 257 257 258 259 260 261 262 264 267 270 273 275 277 279 280 281 282 283 284 286 288 290 292 295 299 303 307 309 309 309 309 309 309 308 307 307 307 306
214 216 219 221 223 223 222 222 224 228 232 234 235 234 234 232 231 230 232 236 240 243 244 242 239 236 233 233 233 235 235 233 230 227 226 227 230 232 234 234 232 230 231 234 237 240 245 251 253 258 266 266 267 269 270 267 263 260 258 257 258 258 259 259 259 259 259 260 262 263 263 263 264 266 269 271 274 276 278 280 281 282 282 283 284 286 288 290 292 296 301 306 308 309 309 309 309 309 309 308 307 306 305
214 217 219 221 223 223 224 224 226 230 233 235 236 235 234 232 230 229 230 232 237 241 245 245 244 241 238 236 236 236 237 236 233 230 228 229 231 233 235 237 239 240 240 241 242 240 239 245 244 247 268 273 272 270 272 273 272 269 266 265 264 262 262 261 261 261 261 262 263 264 265 266 266 267 269 271 273 275 277 279 281 282 282 283 283 285 286 288 290 294 299 304 306 307 307 307 308 309 309 308 306 305 304
216 217 220 222 223 224 225 226 229 231 234 236 236 235 234 233 231 229 230 232 236 241 245 246 246 245 242 239 237 237 238 238 237 234 232 231 232 234 236 238 240 241 243 245 246 246 245 247 248 252 261 272 277 277 275 276 277 277 276 275 274 271 269 267 265 263 263 263 264 265 266 267 268 269 270 272 273 275 277 279 280 282 282 283 283 284 285 287 289 292 296 301 303 304 304 305 308 309 309 307 305 303 302
218 218 220 221 223 224 225 227 230 232 235 236 236 235 235 234 232 231 231 232 236 240 244 247 249 248 246 242 240 239 240 241 241 239 236 235 235 236 238 240 241 243 244 246 247 248 248 250 253 256 260 265 272 277 279 278 278 278 279 280 280 279 278 276 273 270 268 267 266 266 266 267 268 269 271 272 274 275 277 278 280 281 283 283 283 284 285 286 288 290 294 297 299 301 303 306 309 310 309 305 302 299 299
220 219 219 221 222 224 225 227 229 232 234 235 236 235 235 235 233 232 231 232 234 238 243 247 249 249 247 245 243 242 242 243 244 243 242 241 240 240 241 242 243 245 246 248 249 250 251 252 254 256 260 263 267 271 275 276 277 277 278 279 280 280 281 281 280 279 276 273 270 268 267 267 268 269 271 273 274 276 277 278 279 281 282 283 284 284 285 286 288 291 293 295 298 300 305 310 312 311 308 303 298 296 297